Voltar ao catálogo

STARLINK-4275

AtivoComunicaçõesVLEO
NORAD 53008·PAYLOAD·🇺🇸 United States

Lançado Jul 7, 2022 de Cape Canaveral Space Force Station

Loading…

Próximas Passagens (próximas 24 horas)

TLE

AtualizadoSource: CelesTrak SupGP

Época: Sep 14, 2026, 14:02 UTC

1 53008C 22076Y   26257.58520833  .00052669  00000+0  15069-2 0  2576
2 53008  53.1577 311.3787 0001079  82.6414  33.6616 15.35372754    16

Acompanhe STARLINK-4275 em tempo real com AllMySat

Download on the App Store